,,PA_Meas_PMT16A,,PR_Meas_QMR101_102,,RH_Meas_QMH101,,SR_Meas_QMS101,,TA_Meas_QMH101,,GenWind,,GenWind,
time,status,PA,status,PR,status,RH,status,SR,status,TA,status,DirAvg,status,SpdAvg,
2010-10-30, 00:00:05,VALID,917.501,VALID,0,VALID,96.2304,VALID,0,VALID,18.5525,VALID,55,VALID,0.504687,
2010-10-30, 00:01:05,VALID,917.509,VALID,0,VALID,96.238,VALID,0,VALID,18.5525,VALID,55,VALID,0.580469,
2010-10-30, 00:02:05,VALID,917.477,VALID,0,VALID,96.2609,VALID,0,VALID,18.5525,VALID,55,VALID,0.400781,
2010-10-30, 00:03:05,VALID,917.442,VALID,0,VALID,96.2761,VALID,0,VALID,18.5525,VALID,55,VALID,0.557031,
2010-10-30, 00:04:05,VALID,917.461,VALID,0,VALID,96.3142,VALID,0,VALID,18.5539,VALID,55,VALID,0.380469,
2010-10-30, 00:05:05,VALID,917.438,VALID,0,VALID,96.3371,VALID,0,VALID,18.533,VALID,55,VALID,0.303516,
2010-10-30, 00:06:05,VALID,917.456,VALID,0,VALID,96.3752,VALID,0,VALID,18.5539,VALID,55,VALID,0.149609,
2010-10-30, 00:07:05,VALID,917.418,VALID,0,VALID,96.4057,VALID,0,VALID,18.5539,VALID,55,VALID,0.0726563,
2010-10-30, 00:08:05,VALID,917.374,VALID,0,VALID,96.3905,VALID,0,VALID,18.533,VALID,55,VALID,0,
2010-10-30, 00:09:05,VALID,917.352,VALID,0,VALID,96.3524,VALID,0,VALID,18.5149,VALID,55,VALID,0.0609375,
2010-10-30, 00:10:05,VALID,917.322,VALID,0,VALID,96.3371,VALID,0,VALID,18.4954,VALID,55,VALID,0.153906,
2010-10-30, 00:11:05,VALID,917.292,VALID,0,VALID,96.3981,VALID,0,VALID,18.4954,VALID,55,VALID,0.246094,
2010-10-30, 00:12:05,VALID,917.268,VALID,0,VALID,96.4362,VALID,0,VALID,18.4954,VALID,55,VALID,0.08125,
2010-10-30, 00:13:05,VALID,917.265,VALID,0,VALID,96.4438,VALID,0,VALID,18.494,VALID,55,VALID,0,
2010-10-30, 00:14:05,VALID,917.226,VALID,0,VALID,96.4667,VALID,0,VALID,18.494,VALID,55,VALID,0,
2010-10-30, 00:15:05,VALID,917.185,VALID,0,VALID,96.4896,VALID,0,VALID,18.494,VALID,55,VALID,0,
2010-10-30, 00:16:05,VALID,917.178,VALID,0,VALID,96.4743,VALID,0,VALID,18.455,VALID,55,VALID,0.294531,
2010-10-30, 00:17:05,VALID,917.159,VALID,0,VALID,96.4972,VALID,0,VALID,18.4536,VALID,55,VALID,0,
2010-10-30, 00:18:05,VALID,917.149,VALID,0,VALID,96.5353,VALID,0,VALID,18.455,VALID,55,VALID,0,
2010-10-30, 00:19:05,VALID,917.153,VALID,0,VALID,96.5506,VALID,0,VALID,18.455,VALID,55,VALID,0,
2010-10-30, 00:20:05,VALID,917.111,VALID,0,VALID,96.5658,VALID,0,VALID,18.4745,VALID,55,VALID,0.253906,
2010-10-30, 00:21:05,VALID,917.119,VALID,0,VALID,96.5963,VALID,0,VALID,18.4745,VALID,55,VALID,0.0273438,
2010-10-30, 00:22:05,VALID,917.11,VALID,0,VALID,96.6344,VALID,0,VALID,18.494,VALID,55,VALID,0,
2010-10-30, 00:23:05,VALID,917.089,VALID,0,VALID,96.6192,VALID,0,VALID,18.5135,VALID,55,VALID,0,
2010-10-30, 00:24:05,VALID,917.067,VALID,0,VALID,96.5429,VALID,0,VALID,18.494,VALID,55,VALID,0.792578,
2010-10-30, 00:25:05,VALID,917.11,VALID,0,VALID,96.4743,VALID,0,VALID,18.455,VALID,55,VALID,0.584766,
2010-10-30, 00:26:05,VALID,917.084,VALID,0,VALID,96.5201,VALID,0,VALID,18.4146,VALID,55,VALID,0.394141,
2010-10-30, 00:27:05,VALID,917.076,VALID,0,VALID,96.4667,VALID,0,VALID,18.4146,VALID,55,VALID,0.296484,
2010-10-30, 00:28:05,VALID,917.04,VALID,0,VALID,96.5277,VALID,0,VALID,18.4355,VALID,55,VALID,0.332031,
2010-10-30, 00:29:05,VALID,917.012,VALID,0,VALID,96.4591,VALID,0,VALID,18.3951,VALID,55,VALID,0.202344,
2010-10-30, 00:30:05,VALID,917.019,VALID,0,VALID,96.4896,VALID,0.107441,VALID,18.377,VALID,55,VALID,0.028125,
2010-10-30, 00:31:05,VALID,916.981,VALID,0,VALID,96.5124,VALID,0,VALID,18.3561,VALID,55,VALID,0.245703,
2010-10-30, 00:32:05,VALID,916.959,VALID,0,VALID,96.5506,VALID,0,VALID,18.3575,VALID,55,VALID,0.348437,
2010-10-30, 00:33:05,VALID,917,VALID,0,VALID,96.5658,VALID,0,VALID,18.377,VALID,55,VALID,0.0015625,
2010-10-30, 00:34:05,VALID,916.976,VALID,0,VALID,96.5887,VALID,0,VALID,18.3561,VALID,55,VALID,0.00078125,
2010-10-30, 00:35:05,VALID,916.976,VALID,0,VALID,96.6649,VALID,0.107441,VALID,18.416,VALID,55,VALID,0.271484,
2010-10-30, 00:36:05,VALID,916.962,VALID,0,VALID,96.6802,VALID,0.107441,VALID,18.416,VALID,55,VALID,0.196484,
2010-10-30, 00:37:05,VALID,917.01,VALID,0,VALID,96.703,VALID,0.107441,VALID,18.4146,VALID,55,VALID,0.429297,
2010-10-30, 00:38:05,VALID,916.961,VALID,0,VALID,96.6192,VALID,0,VALID,18.416,VALID,55,VALID,0.403516,
2010-10-30, 00:39:05,VALID,916.905,VALID,0,VALID,96.5658,VALID,0,VALID,18.3561,VALID,55,VALID,0.618359,
2010-10-30, 00:40:05,VALID,916.898,VALID,0,VALID,96.6039,VALID,0,VALID,18.377,VALID,55,VALID,0.580859,
2010-10-30, 00:41:05,VALID,916.891,VALID,0,VALID,96.6192,VALID,0.107441,VALID,18.3561,VALID,55,VALID,0.517578,
2010-10-30, 00:42:05,VALID,916.907,VALID,0,VALID,96.6268,VALID,0,VALID,18.3756,VALID,55,VALID,0.483984,
2010-10-30, 00:43:05,VALID,916.911,VALID,0,VALID,96.6344,VALID,0,VALID,18.416,VALID,55,VALID,0.0121094,
2010-10-30, 00:44:05,VALID,916.904,VALID,0,VALID,96.6573,VALID,0.107441,VALID,18.4146,VALID,55,VALID,0,
2010-10-30, 00:45:04,VALID,916.931,VALID,0,VALID,96.703,VALID,0,VALID,18.455,VALID,55,VALID,0,
2010-10-30, 00:46:04,VALID,916.942,VALID,0,VALID,96.6649,VALID,0.107441,VALID,18.4536,VALID,55,VALID,0,
2010-10-30, 00:47:04,VALID,916.929,VALID,0,VALID,96.5658,VALID,0,VALID,18.455,VALID,55,VALID,0,
2010-10-30, 00:48:04,VALID,916.942,VALID,0,VALID,96.5582,VALID,0,VALID,18.416,VALID,55,VALID,0.419141,
2010-10-30, 00:49:04,VALID,916.907,VALID,0,VALID,96.5201,VALID,0.107441,VALID,18.3756,VALID,55,VALID,0.555469,
2010-10-30, 00:50:04,VALID,916.936,VALID,0,VALID,96.5506,VALID,0.107441,VALID,18.3756,VALID,55,VALID,0.250391,
2010-10-30, 00:51:04,VALID,916.95,VALID,0,VALID,96.5734,VALID,0,VALID,18.416,VALID,55,VALID,0,
2010-10-30, 00:52:04,VALID,916.99,VALID,0,VALID,96.5734,VALID,0,VALID,18.4146,VALID,55,VALID,0,
2010-10-30, 00:53:04,VALID,916.959,VALID,0,VALID,96.6497,VALID,0,VALID,18.455,VALID,55,VALID,0,
2010-10-30, 00:54:04,VALID,916.968,VALID,0,VALID,96.6192,VALID,0,VALID,18.4745,VALID,55,VALID,0,
2010-10-30, 00:55:04,VALID,916.951,VALID,0,VALID,96.5963,VALID,0,VALID,18.494,VALID,55,VALID,0,
2010-10-30, 00:56:04,VALID,916.914,VALID,0,VALID,96.5811,VALID,0,VALID,18.4731,VALID,55,VALID,0.249609,
2010-10-30, 00:57:04,VALID,916.937,VALID,0,VALID,96.5048,VALID,0.107441,VALID,18.4536,VALID,55,VALID,0.607422,
2010-10-30, 00:58:04,VALID,916.898,VALID,0,VALID,96.4667,VALID,0.107441,VALID,18.455,VALID,55,VALID,0.524609,
2010-10-30, 00:59:04,VALID,916.884,VALID,0,VALID,96.4438,VALID,0,VALID,18.4731,VALID,55,VALID,0.258203,
2010-10-30, 01:00:04,VALID,916.89,VALID,0,VALID,96.3829,VALID,0,VALID,18.4926,VALID,55,VALID,0.123047,
2010-10-30, 01:01:04,VALID,916.872,VALID,0,VALID,96.3371,VALID,0,VALID,18.5316,VALID,55,VALID,0,
2010-10-30, 01:02:04,VALID,916.857,VALID,0,VALID,96.2456,VALID,0,VALID,18.5511,VALID,55,VALID,0,
2010-10-30, 01:03:04,VALID,916.872,VALID,0,VALID,96.1389,VALID,0,VALID,18.5525,VALID,55,VALID,0,
2010-10-30, 01:04:04,VALID,916.867,VALID,0,VALID,96.0474,VALID,0,VALID,18.5525,VALID,55,VALID,0,
2010-10-30, 01:05:04,VALID,916.868,VALID,0,VALID,95.9483,VALID,0.107441,VALID,18.5316,VALID,55,VALID,0,
2010-10-30, 01:06:04,VALID,916.874,VALID,0,VALID,95.8721,VALID,0,VALID,18.5121,VALID,55,VALID,0,
2010-10-30, 01:07:04,VALID,916.851,VALID,0,VALID,95.8568,VALID,0,VALID,18.4926,VALID,55,VALID,0.20625,
2010-10-30, 01:08:04,VALID,916.842,VALID,0,VALID,95.8721,VALID,0,VALID,18.494,VALID,55,VALID,0,
2010-10-30, 01:09:04,VALID,916.823,VALID,0,VALID,95.9178,VALID,0,VALID,18.4536,VALID,55,VALID,0,
2010-10-30, 01:10:04,VALID,916.803,VALID,0,VALID,95.9559,VALID,0,VALID,18.4341,VALID,55,VALID,0.226953,
2010-10-30, 01:11:04,VALID,916.824,VALID,0,VALID,95.9407,VALID,0,VALID,18.4536,VALID,55,VALID,0.411719,
2010-10-30, 01:12:04,VALID,916.778,VALID,0,VALID,95.9559,VALID,0,VALID,18.4745,VALID,55,VALID,0.500781,
2010-10-30, 01:13:04,VALID,916.767,VALID,0,VALID,95.9254,VALID,0,VALID,18.5135,VALID,55,VALID,0.659766,
2010-10-30, 01:14:04,VALID,916.758,VALID,0,VALID,95.9178,VALID,0,VALID,18.533,VALID,55,VALID,0.540234,
2010-10-30, 01:15:04,VALID,916.727,VALID,0,VALID,95.8797,VALID,0,VALID,18.5316,VALID,55,VALID,0.654688,
2010-10-30, 01:16:04,VALID,916.755,VALID,0,VALID,95.7044,VALID,0,VALID,18.4745,VALID,55,VALID,0.366016,
2010-10-30, 01:17:04,VALID,916.724,VALID,0,VALID,95.6586,VALID,0.107441,VALID,18.4146,VALID,55,VALID,0.377344,
2010-10-30, 01:18:04,VALID,916.732,VALID,0,VALID,95.7196,VALID,0.107441,VALID,18.3951,VALID,55,VALID,0.0105469,
2010-10-30, 01:19:04,VALID,916.709,VALID,0,VALID,95.8263,VALID,0,VALID,18.3561,VALID,55,VALID,0,
2010-10-30, 01:20:04,VALID,916.681,VALID,0,VALID,95.8873,VALID,0,VALID,18.3561,VALID,55,VALID,0.344922,
2010-10-30, 01:21:04,VALID,916.673,VALID,0,VALID,95.9026,VALID,0.107441,VALID,18.338,VALID,55,VALID,0.852344,
2010-10-30, 01:22:04,VALID,916.704,VALID,0,VALID,95.9178,VALID,0,VALID,18.299,VALID,55,VALID,0.491016,
2010-10-30, 01:23:04,VALID,916.701,VALID,0,VALID,96.0322,VALID,0.107441,VALID,18.2796,VALID,55,VALID,0.353516,
2010-10-30, 01:24:04,VALID,916.675,VALID,0,VALID,96.1313,VALID,0,VALID,18.2601,VALID,55,VALID,0.0433594,
2010-10-30, 01:25:04,VALID,916.623,VALID,0,VALID,96.2304,VALID,0,VALID,18.2587,VALID,55,VALID,0.914063,
2010-10-30, 01:26:04,VALID,916.59,VALID,0,VALID,96.2533,VALID,0,VALID,18.299,VALID,55,VALID,1.10156,
2010-10-30, 01:27:04,VALID,916.541,VALID,0,VALID,96.1389,VALID,0,VALID,18.3756,VALID,80,VALID,0.931641,
2010-10-30, 01:28:04,VALID,916.511,VALID,0,VALID,95.9026,VALID,0,VALID,18.455,VALID,81,VALID,0.850781,
2010-10-30, 01:29:04,VALID,916.557,VALID,0,VALID,95.6586,VALID,0,VALID,18.4731,VALID,81,VALID,0.592578,
2010-10-30, 01:30:04,VALID,916.551,VALID,0,VALID,95.5062,VALID,0,VALID,18.494,VALID,81,VALID,0.0488281,
2010-10-30, 01:31:04,VALID,916.546,VALID,0,VALID,95.4452,VALID,0,VALID,18.4731,VALID,81,VALID,0,
2010-10-30, 01:32:04,VALID,916.55,VALID,0,VALID,95.4223,VALID,0,VALID,18.4731,VALID,81,VALID,0,
2010-10-30, 01:33:04,VALID,916.54,VALID,0,VALID,95.4833,VALID,0,VALID,18.4745,VALID,81,VALID,0,
2010-10-30, 01:34:04,VALID,916.511,VALID,0,VALID,95.5214,VALID,0.107441,VALID,18.455,VALID,81,VALID,0,
2010-10-30, 01:35:04,VALID,916.495,VALID,0,VALID,95.6205,VALID,0,VALID,18.4536,VALID,81,VALID,0,
2010-10-30, 01:36:04,VALID,916.492,VALID,0,VALID,95.6129,VALID,0,VALID,18.455,VALID,81,VALID,0,
2010-10-30, 01:37:04,VALID,916.466,VALID,0,VALID,95.6357,VALID,0,VALID,18.4355,VALID,81,VALID,0,
2010-10-30, 01:38:04,VALID,916.417,VALID,0,VALID,95.712,VALID,0,VALID,18.4355,VALID,81,VALID,0,
2010-10-30, 01:39:04,VALID,916.424,VALID,0,VALID,95.5824,VALID,0,VALID,18.4341,VALID,81,VALID,0.629297,
2010-10-30, 01:40:04,VALID,916.44,VALID,0,VALID,95.1707,VALID,0,VALID,18.5121,VALID,81,VALID,0.526953,
2010-10-30, 01:41:04,VALID,916.409,VALID,0,VALID,94.8124,VALID,0,VALID,18.6304,VALID,81,VALID,0.271484,
2010-10-30, 01:42:04,VALID,916.36,VALID,0,VALID,94.4008,VALID,0,VALID,18.629,VALID,81,VALID,0.342578,
2010-10-30, 01:43:04,VALID,916.353,VALID,0,VALID,93.9662,VALID,0,VALID,18.7098,VALID,81,VALID,0,
2010-10-30, 01:44:04,VALID,916.373,VALID,0,VALID,93.7451,VALID,0,VALID,18.7098,VALID,81,VALID,0,
2010-10-30, 01:45:04,VALID,916.334,VALID,0,VALID,93.5393,VALID,0,VALID,18.7084,VALID,81,VALID,0.247656,
2010-10-30, 01:46:04,VALID,916.323,VALID,0,VALID,93.6232,VALID,0,VALID,18.7683,VALID,81,VALID,0,
2010-10-30, 01:47:04,VALID,916.329,VALID,0,VALID,93.8214,VALID,0,VALID,18.7669,VALID,81,VALID,0,
2010-10-30, 01:48:04,VALID,916.308,VALID,0,VALID,93.8595,VALID,0,VALID,18.7474,VALID,81,VALID,0.194531,
2010-10-30, 01:49:04,VALID,916.316,VALID,0,VALID,93.7375,VALID,0,VALID,18.6889,VALID,81,VALID,0.191016,
2010-10-30, 01:50:04,VALID,916.29,VALID,0,VALID,93.6003,VALID,0,VALID,18.6889,VALID,81,VALID,0.0265625,
2010-10-30, 01:51:04,VALID,916.27,VALID,0,VALID,92.533,VALID,0,VALID,18.7669,VALID,250,VALID,1.56328,
2010-10-30, 01:52:04,VALID,916.304,VALID,0,VALID,90.3451,VALID,0,VALID,19.0203,VALID,252,VALID,1.08398,
2010-10-30, 01:53:04,VALID,916.316,VALID,0,VALID,90.2003,VALID,0,VALID,19.2168,VALID,251,VALID,0.732031,
2010-10-30, 01:54:04,VALID,916.289,VALID,0,VALID,89.9334,VALID,0,VALID,19.1958,VALID,251,VALID,0.688672,
2010-10-30, 01:55:04,VALID,916.304,VALID,0,VALID,90.2003,VALID,0,VALID,19.1763,VALID,251,VALID,0,
2010-10-30, 01:56:04,VALID,916.279,VALID,0,VALID,90.5814,VALID,0,VALID,19.1778,VALID,251,VALID,0.151953,
2010-10-30, 01:57:04,VALID,916.29,VALID,0,VALID,90.5204,VALID,0,VALID,19.1568,VALID,251,VALID,0.260938,
2010-10-30, 01:58:04,VALID,916.285,VALID,0,VALID,90.711,VALID,0.107441,VALID,19.1568,VALID,251,VALID,0.494531,
2010-10-30, 01:59:04,VALID,916.275,VALID,0,VALID,91.1456,VALID,0,VALID,19.0983,VALID,251,VALID,0.118359,
2010-10-30, 02:00:04,VALID,916.245,VALID,0,VALID,91.4276,VALID,0,VALID,19.0593,VALID,251,VALID,0.00585938,
2010-10-30, 02:01:04,VALID,916.256,VALID,0,VALID,91.3209,VALID,0,VALID,19.0384,VALID,251,VALID,0.405078,
2010-10-30, 02:02:04,VALID,916.273,VALID,0,VALID,91.8164,VALID,0,VALID,18.9994,VALID,251,VALID,0.385938,
2010-10-30, 02:03:04,VALID,916.24,VALID,0,VALID,92.2433,VALID,0,VALID,18.9619,VALID,251,VALID,0.20625,
2010-10-30, 02:04:04,VALID,916.258,VALID,0,VALID,92.716,VALID,0,VALID,18.9034,VALID,251,VALID,0,
2010-10-30, 02:05:04,VALID,916.249,VALID,0,VALID,92.9294,VALID,0,VALID,18.8449,VALID,251,VALID,0,
2010-10-30, 02:06:04,VALID,916.2,VALID,0,VALID,93.1658,VALID,0,VALID,18.785,VALID,251,VALID,0.0785156,
2010-10-30, 02:07:04,VALID,916.211,VALID,0,VALID,93.4478,VALID,0,VALID,18.707,VALID,251,VALID,0.259766,
2010-10-30, 02:08:04,VALID,916.232,VALID,0,VALID,93.3792,VALID,0,VALID,18.6499,VALID,251,VALID,0.445703,
2010-10-30, 02:09:04,VALID,916.196,VALID,0,VALID,93.6384,VALID,0,VALID,18.5705,VALID,251,VALID,0.548047,
2010-10-30, 02:10:04,VALID,916.188,VALID,0,VALID,94.0196,VALID,0,VALID,18.5135,VALID,251,VALID,0.432031,
2010-10-30, 02:11:04,VALID,916.179,VALID,0,VALID,94.416,VALID,0,VALID,18.494,VALID,251,VALID,0.311328,
2010-10-30, 02:12:04,VALID,916.149,VALID,0,VALID,94.5456,VALID,0,VALID,18.4745,VALID,251,VALID,0.564844,
2010-10-30, 02:13:04,VALID,916.147,VALID,0,VALID,94.5609,VALID,0,VALID,18.4369,VALID,251,VALID,0.447266,
2010-10-30, 02:14:04,VALID,916.132,VALID,0,VALID,94.6676,VALID,0,VALID,18.3965,VALID,251,VALID,0.560156,
2010-10-30, 02:15:04,VALID,916.13,VALID,0,VALID,94.7362,VALID,0,VALID,18.3979,VALID,251,VALID,0.323438,
2010-10-30, 02:16:04,VALID,916.116,VALID,0,VALID,94.8505,VALID,0,VALID,18.3589,VALID,251,VALID,0.130859,
2010-10-30, 02:17:04,VALID,916.09,VALID,0,VALID,94.8429,VALID,0,VALID,18.3575,VALID,251,VALID,0.815625,
2010-10-30, 02:18:04,VALID,916.108,VALID,0,VALID,94.4236,VALID,0,VALID,18.5135,VALID,222,VALID,0.596484,
2010-10-30, 02:19:04,VALID,916.092,VALID,0,VALID,93.9967,VALID,0,VALID,18.5929,VALID,222,VALID,0.404687,
2010-10-30, 02:20:04,VALID,916.095,VALID,0,VALID,93.6765,VALID,0,VALID,18.6124,VALID,222,VALID,0.539453,
2010-10-30, 02:21:04,VALID,916.044,VALID,0,VALID,93.646,VALID,0,VALID,18.572,VALID,222,VALID,0.734766,
2010-10-30, 02:22:04,VALID,916.083,VALID,0,VALID,93.768,VALID,0,VALID,18.533,VALID,222,VALID,0.691797,
2010-10-30, 02:23:04,VALID,916.06,VALID,0,VALID,93.8366,VALID,0,VALID,18.533,VALID,223,VALID,0.483203,
2010-10-30, 02:24:04,VALID,916.062,VALID,0,VALID,93.951,VALID,0,VALID,18.5135,VALID,222,VALID,0,
2010-10-30, 02:25:04,VALID,916.039,VALID,0,VALID,94.0043,VALID,0,VALID,18.5344,VALID,223,VALID,0,
2010-10-30, 02:26:04,VALID,916.032,VALID,0,VALID,93.707,VALID,0,VALID,18.5539,VALID,289,VALID,0.79375,
2010-10-30, 02:27:04,VALID,916.024,VALID,0,VALID,93.5851,VALID,0,VALID,18.6109,VALID,44,VALID,0.317969,
2010-10-30, 02:28:04,VALID,916.012,VALID,0,VALID,93.3487,VALID,0,VALID,18.6124,VALID,43,VALID,0.198437,
2010-10-30, 02:29:04,VALID,916.01,VALID,0,VALID,93.2344,VALID,0,VALID,18.6513,VALID,44,VALID,0.472266,
2010-10-30, 02:30:04,VALID,915.985,VALID,0,VALID,93.2191,VALID,0,VALID,18.6319,VALID,43,VALID,0.383203,
2010-10-30, 02:31:04,VALID,915.964,VALID,0,VALID,93.2649,VALID,0,VALID,18.6109,VALID,44,VALID,0.120312,
2010-10-30, 02:32:04,VALID,915.913,VALID,0,VALID,93.3106,VALID,0,VALID,18.6124,VALID,44,VALID,0.666797,
2010-10-30, 02:33:04,VALID,915.88,VALID,0,VALID,93.6155,VALID,0,VALID,18.5734,VALID,44,VALID,0.20625,
2010-10-30, 02:34:04,VALID,915.866,VALID,0,VALID,93.8061,VALID,0,VALID,18.572,VALID,44,VALID,0,
2010-10-30, 02:35:04,VALID,915.885,VALID,0,VALID,93.9357,VALID,0,VALID,18.5539,VALID,44,VALID,0.09375,
2010-10-30, 02:36:04,VALID,915.877,VALID,0,VALID,94.0958,VALID,0,VALID,18.5539,VALID,44,VALID,0,
2010-10-30, 02:37:04,VALID,915.812,VALID,0,VALID,94.1873,VALID,0,VALID,18.5149,VALID,44,VALID,0,
2010-10-30, 02:38:04,VALID,915.836,VALID,0,VALID,94.0272,VALID,0,VALID,18.5149,VALID,45,VALID,0,
2010-10-30, 02:39:04,VALID,915.811,VALID,0,VALID,93.8061,VALID,0,VALID,18.494,VALID,44,VALID,0.0949219,
2010-10-30, 02:40:04,VALID,915.78,VALID,0,VALID,93.6384,VALID,0,VALID,18.5929,VALID,43,VALID,0.198437,
2010-10-30, 02:41:04,VALID,915.792,VALID,0,VALID,93.6689,VALID,0,VALID,18.6109,VALID,44,VALID,0.282813,
2010-10-30, 02:42:04,VALID,915.768,VALID,0,VALID,93.6003,VALID,0,VALID,18.6319,VALID,44,VALID,0.285547,
2010-10-30, 02:43:04,VALID,915.771,VALID,0,VALID,93.5393,VALID,0,VALID,18.5914,VALID,44,VALID,0.182422,
2010-10-30, 02:44:04,VALID,915.74,VALID,0,VALID,93.7147,VALID,0.107441,VALID,18.5525,VALID,44,VALID,0.0925781,
2010-10-30, 02:45:04,VALID,915.708,VALID,0,VALID,93.9052,VALID,0,VALID,18.533,VALID,44,VALID,0.195313,
2010-10-30, 02:46:04,VALID,915.748,VALID,0,VALID,93.9586,VALID,0,VALID,18.494,VALID,44,VALID,0.394141,
2010-10-30, 02:47:04,VALID,915.73,VALID,0,VALID,94.1721,VALID,0,VALID,18.4536,VALID,44,VALID,0.332812,
2010-10-30, 02:48:04,VALID,915.732,VALID,0,VALID,94.3169,VALID,0.107441,VALID,18.4355,VALID,44,VALID,0.441016,
2010-10-30, 02:49:04,VALID,915.702,VALID,0,VALID,94.2407,VALID,0,VALID,18.4745,VALID,44,VALID,0.191016,
2010-10-30, 02:50:04,VALID,915.714,VALID,0,VALID,94.1187,VALID,0,VALID,18.4536,VALID,44,VALID,0,
2010-10-30, 02:51:04,VALID,915.677,VALID,0,VALID,94.233,VALID,0,VALID,18.5135,VALID,44,VALID,0,
2010-10-30, 02:52:04,VALID,915.629,VALID,0,VALID,94.1949,VALID,0,VALID,18.533,VALID,44,VALID,0.00585938,
2010-10-30, 02:53:04,VALID,915.623,VALID,0,VALID,94.1644,VALID,0,VALID,18.533,VALID,44,VALID,0.455469,
2010-10-30, 02:54:04,VALID,915.592,VALID,0,VALID,94.0577,VALID,0,VALID,18.4536,VALID,44,VALID,0.433203,
2010-10-30, 02:55:04,VALID,915.607,VALID,0,VALID,94.2026,VALID,0,VALID,18.455,VALID,44,VALID,0.299609,
2010-10-30, 02:56:04,VALID,915.625,VALID,0,VALID,94.1187,VALID,0,VALID,18.4341,VALID,44,VALID,0.219531,
2010-10-30, 02:57:04,VALID,915.616,VALID,0,VALID,93.9129,VALID,0,VALID,18.4536,VALID,44,VALID,0.326172,
2010-10-30, 02:58:04,VALID,915.605,VALID,0,VALID,93.8366,VALID,0,VALID,18.494,VALID,44,VALID,0.01875,
2010-10-30, 02:59:04,VALID,915.593,VALID,0,VALID,93.5164,VALID,0,VALID,18.5734,VALID,44,VALID,0.23125,
2010-10-30, 03:00:04,VALID,915.601,VALID,0,VALID,93.5317,VALID,0,VALID,18.5344,VALID,44,VALID,0.0117188,
2010-10-30, 03:01:04,VALID,915.62,VALID,0,VALID,93.4859,VALID,0,VALID,18.533,VALID,44,VALID,0.126563,
2010-10-30, 03:02:04,VALID,915.626,VALID,0,VALID,93.6232,VALID,0,VALID,18.5135,VALID,44,VALID,0.0902344,
2010-10-30, 03:03:04,VALID,915.597,VALID,0,VALID,93.5088,VALID,0,VALID,18.5344,VALID,44,VALID,0.537109,
2010-10-30, 03:04:04,VALID,915.617,VALID,0,VALID,93.7147,VALID,0,VALID,18.4954,VALID,44,VALID,0.512891,
2010-10-30, 03:05:04,VALID,915.573,VALID,0,VALID,93.7833,VALID,0,VALID,18.4564,VALID,44,VALID,0.631641,
2010-10-30, 03:06:04,VALID,915.577,VALID,0,VALID,93.9434,VALID,0,VALID,18.4369,VALID,44,VALID,0.636719,
2010-10-30, 03:07:04,VALID,915.572,VALID,0,VALID,94.0272,VALID,0,VALID,18.416,VALID,44,VALID,0.560156,
2010-10-30, 03:08:04,VALID,915.555,VALID,0,VALID,93.9281,VALID,0,VALID,18.4564,VALID,44,VALID,0.441016,
2010-10-30, 03:09:04,VALID,915.538,VALID,0,VALID,93.7375,VALID,0,VALID,18.4564,VALID,44,VALID,0.489453,
2010-10-30, 03:10:04,VALID,915.551,VALID,0,VALID,93.8214,VALID,0,VALID,18.4759,VALID,44,VALID,0.00585938,
2010-10-30, 03:11:04,VALID,915.519,VALID,0,VALID,93.6994,VALID,0,VALID,18.4759,VALID,44,VALID,0.213672,
2010-10-30, 03:12:04,VALID,915.479,VALID,0,VALID,93.8519,VALID,0,VALID,18.4564,VALID,44,VALID,0.280859,
2010-10-30, 03:13:04,VALID,915.469,VALID,0,VALID,94.0806,VALID,0,VALID,18.4174,VALID,44,VALID,0.419531,
2010-10-30, 03:14:04,VALID,915.456,VALID,0,VALID,94.294,VALID,0,VALID,18.3394,VALID,44,VALID,0.165625,
2010-10-30, 03:15:04,VALID,915.458,VALID,0,VALID,94.4922,VALID,0,VALID,18.3185,VALID,44,VALID,0.00507812,
2010-10-30, 03:16:04,VALID,915.424,VALID,0,VALID,94.6295,VALID,0,VALID,18.3575,VALID,44,VALID,0.235938,
2010-10-30, 03:17:04,VALID,915.419,VALID,0,VALID,94.6828,VALID,0,VALID,18.338,VALID,44,VALID,0.00585938,
2010-10-30, 03:18:04,VALID,915.438,VALID,0,VALID,94.7209,VALID,0,VALID,18.3394,VALID,44,VALID,0.353125,
2010-10-30, 03:19:04,VALID,915.407,VALID,0,VALID,94.6371,VALID,0,VALID,18.3589,VALID,44,VALID,0.255078,
2010-10-30, 03:20:04,VALID,915.405,VALID,0,VALID,94.6523,VALID,0,VALID,18.3784,VALID,44,VALID,0,
2010-10-30, 03:21:04,VALID,915.371,VALID,0,VALID,94.5837,VALID,0,VALID,18.3979,VALID,44,VALID,0,
2010-10-30, 03:22:04,VALID,915.384,VALID,0,VALID,94.5913,VALID,0,VALID,18.3589,VALID,44,VALID,0,
2010-10-30, 03:23:04,VALID,915.373,VALID,0,VALID,94.5685,VALID,0,VALID,18.3979,VALID,44,VALID,0,
2010-10-30, 03:24:04,VALID,915.376,VALID,0,VALID,94.599,VALID,0,VALID,18.3979,VALID,44,VALID,0,
2010-10-30, 03:25:04,VALID,915.393,VALID,0,VALID,94.7438,VALID,0,VALID,18.4174,VALID,44,VALID,0,
2010-10-30, 03:26:04,VALID,915.392,VALID,0,VALID,94.6142,VALID,0,VALID,18.3798,VALID,44,VALID,0,
2010-10-30, 03:27:04,VALID,915.401,VALID,0,VALID,94.5304,VALID,0,VALID,18.3394,VALID,44,VALID,0,
2010-10-30, 03:28:04,VALID,915.39,VALID,0,VALID,94.4999,VALID,0,VALID,18.338,VALID,44,VALID,0.0445312,
2010-10-30, 03:29:04,VALID,915.41,VALID,0,VALID,94.477,VALID,0,VALID,18.3185,VALID,44,VALID,0.296484,
2010-10-30, 03:30:04,VALID,915.44,VALID,0,VALID,94.5532,VALID,0,VALID,18.299,VALID,44,VALID,0.304297,
2010-10-30, 03:31:04,VALID,915.415,VALID,0,VALID,94.6981,VALID,0,VALID,18.2796,VALID,44,VALID,0.209766,
2010-10-30, 03:32:04,VALID,915.446,VALID,0,VALID,94.82,VALID,0,VALID,18.2601,VALID,44,VALID,0.227344,
2010-10-30, 03:33:04,VALID,915.446,VALID,0,VALID,94.8963,VALID,0,VALID,18.2601,VALID,44,VALID,0.120312,
2010-10-30, 03:34:04,VALID,915.447,VALID,0,VALID,94.9878,VALID,0,VALID,18.2601,VALID,44,VALID,0,
2010-10-30, 03:35:04,VALID,915.456,VALID,0,VALID,95.0411,VALID,0.107441,VALID,18.2601,VALID,44,VALID,0,
2010-10-30, 03:36:04,VALID,915.512,VALID,0,VALID,95.0183,VALID,0,VALID,18.2587,VALID,44,VALID,0.308594,
2010-10-30, 03:37:04,VALID,915.502,VALID,0,VALID,94.9954,VALID,0.107441,VALID,18.2197,VALID,44,VALID,0.346875,
2010-10-30, 03:38:04,VALID,915.518,VALID,0,VALID,95.0564,VALID,0,VALID,18.1821,VALID,44,VALID,0.550391,
2010-10-30, 03:39:04,VALID,915.525,VALID,0,VALID,95.1402,VALID,0,VALID,18.1431,VALID,44,VALID,0.360156,
2010-10-30, 03:40:04,VALID,915.542,VALID,0,VALID,95.2851,VALID,0,VALID,18.1626,VALID,44,VALID,0.397656,
2010-10-30, 03:41:04,VALID,915.547,VALID,0,VALID,95.3918,VALID,0,VALID,18.1821,VALID,44,VALID,0,
2010-10-30, 03:42:04,VALID,915.546,VALID,0,VALID,95.4452,VALID,0,VALID,18.1028,VALID,44,VALID,0,
2010-10-30, 03:43:04,VALID,915.556,VALID,0,VALID,95.4909,VALID,0,VALID,18.2016,VALID,44,VALID,0,
2010-10-30, 03:44:04,VALID,915.588,VALID,0,VALID,95.529,VALID,0,VALID,18.1417,VALID,44,VALID,0,
2010-10-30, 03:45:04,VALID,915.581,VALID,0,VALID,95.5214,VALID,0,VALID,18.1821,VALID,44,VALID,0,
2010-10-30, 03:46:04,VALID,915.583,VALID,0,VALID,95.5062,VALID,0.107441,VALID,18.1612,VALID,44,VALID,0,
2010-10-30, 03:47:04,VALID,915.587,VALID,0,VALID,95.5214,VALID,0,VALID,18.2211,VALID,44,VALID,0,
2010-10-30, 03:48:04,VALID,915.594,VALID,0,VALID,95.529,VALID,0,VALID,18.2211,VALID,44,VALID,0,
2010-10-30, 03:49:04,VALID,915.618,VALID,0,VALID,95.4604,VALID,0,VALID,18.2406,VALID,44,VALID,0.0179687,